DW5707 Weather Reports


time (UTC)temp
F
wind
direction
speed
knots
gust
knots
rain 1hr
in
rain 24hr
in
rain mn
in
humidity
%
barometer
mb
20260505075617 58 248 0.9 5.2 0.00 0.00 0.00 75 1010.7
20260505075113 58 181 0.9 4.3 0.00 0.00 0.00 76 1010.7
20260505074615 57 206 0.9 7.0 0.00 0.00 0.00 76 1010.7
20260505074115 57 240 0.9 7.0 0.00 0.00 0.00 76 1010.6
20260505073611 58 125 0.0 1.7 0.00 0.00 0.00 76 1010.6
20260505072611 58 133 0.0 1.7 0.00 0.00 0.00 75 1010.6
20260505072113 58 133 0.9 2.6 0.00 0.00 0.00 75 1010.6
20260505071612 58 158 0.9 4.3 0.00 0.00 0.00 75 1010.6
20260505071114 58 213 0.9 4.3 0.00 0.00 0.00 75 1010.6
20260505070612 58 174 0.9 4.3 0.00 0.00 0.00 76 1010.7
20260505070112 58 256 0.0 1.7 0.00 0.00 0.00 75 1010.6
20260505064612 59 148 0.9 1.7 0.00 0.00 0.00 74 1010.6
20260505064108 59 147 0.9 1.7 0.00 0.00 0.00 74 1010.7
20260505063607 59 147 0.9 1.7 0.00 0.00 0.00 74 1010.7
20260505063054 60 147 0.9 1.7 0.00 0.00 0.00 73 1010.8
20260505062601 60 147 0.9 2.6 0.00 0.00 0.00 73 1010.8
20260505061053 60 149 0.9 3.5 0.00 0.00 0.00 73 1010.8
20260505060555 60 149 0.9 3.5 0.00 0.00 0.00 71 1010.9
20260505060054 60 203 0.0 1.7 0.00 0.00 0.00 72 1011.0
20260505055550 60 215 0.0 2.6 0.00 0.00 0.00 71 1011.0
20260505055048 60 204 0.9 4.3 0.00 0.00 0.00 71 1010.9
20260505054548 60 183 0.9 4.3 0.00 0.00 0.00 71 1010.9
20260505054048 60 187 0.9 2.6 0.00 0.00 0.00 71 1010.9
20260505053545 60 180 0.9 3.5 0.00 0.00 0.00 70 1010.8
20260505053046 60 150 0.9 3.5 0.00 0.00 0.00 71 1010.9
20260505052546 60 178 0.9 3.5 0.00 0.00 0.00 70 1010.8
20260505052046 60 190 0.9 3.5 0.00 0.00 0.00 70 1010.7
20260505051049 59 174 1.7 4.3 0.00 0.00 0.00 69 1010.7
20260505050549 59 61 0.9 4.3 0.00 0.00 0.00 69 1010.8
20260505041540 60 204 1.7 4.3 0.00 0.00 0.00 67 1010.6
20260505041038 60 188 1.7 4.3 0.00 0.00 0.00 67 1010.4
20260505040536 60 225 1.7 6.1 0.00 0.00 0.00 67 1010.5
20260505040038 60 160 1.7 6.1 0.00 0.00 0.00 67 1010.5
20260505035025 60 160 1.7 3.5 0.00 0.00 0.00 67 1010.5
20260505034522 60 194 0.9 3.5 0.00 0.00 0.00 67 1010.4
20260505033023 59 208 0.9 4.3 0.00 0.00 0.00 67 1010.4
20260505032518 59 195 0.9 4.3 0.00 0.00 0.00 67 1010.3
20260505032016 59 167 0.9 2.6 0.00 0.00 0.00 67 1010.3
20260505031516 59 166 0.9 3.5 0.00 0.00 0.00 66 1010.3
20260505031015 59 176 0.9 3.5 0.00 0.00 0.00 66 1010.4
20260505030015 60 183 0.9 3.5 0.00 0.00 0.00 66 1010.4
20260505025514 60 202 1.7 5.2 0.00 0.00 0.00 66 1010.4
20260505025010 60 218 0.9 5.2 0.00 0.00 0.00 66 1010.6
20260505024009 60 202 0.9 3.5 0.00 0.00 0.00 66 1010.6
20260505023509 60 215 0.9 3.5 0.00 0.00 0.00 66 1010.6
20260505023009 60 218 0.9 5.2 0.00 0.00 0.00 66 1010.5
20260505022508 59 200 0.9 5.2 0.00 0.00 0.00 66 1010.5
20260505022009 59 121 0.9 2.6 0.00 0.00 0.00 66 1010.4
20260505021510 59 111 0.9 2.6 0.00 0.00 0.00 66 1010.5
20260505021008 59 111 0.9 2.6 0.00 0.00 0.00 66 1010.5
20260505020517 59 111 0.9 2.6 0.00 0.00 0.00 67 1010.4
20260505020005 60 69 0.9 2.6 0.00 0.00 0.00 66 1010.5
20260505015506 60 345 0.9 2.6 0.00 0.00 0.00 66 1010.4
20260505015005 60 90 0.9 1.7 0.00 0.00 0.00 65 1010.5
20260505014504 60 81 0.9 1.7 0.00 0.00 0.00 64 1010.6
20260505014000 60 81 0.9 1.7 0.00 0.00 0.00 64 1010.5
20260505013459 61 75 0.9 1.7 0.00 0.00 0.00 63 1010.5
20260505013001 61 68 0.9 2.6 0.00 0.00 0.00 63 1010.5
20260505012502 61 138 0.9 4.3 0.00 0.00 0.00 62 1010.4
20260505012003 62 138 1.7 4.3 0.00 0.00 0.00 62 1010.4
20260505011459 62 133 1.7 4.3 0.00 0.00 0.00 62 1010.3
20260505010450 62 345 1.7 7.0 0.00 0.00 0.00 61 1010.1
20260505005948 63 345 2.6 7.8 0.00 0.00 0.00 60 1010.0
20260505005448 63 345 1.7 7.8 0.00 0.00 0.00 59 1009.9
20260505004950 63 345 1.7 4.3 0.00 0.00 0.00 59 1009.9
20260505003948 63 345 2.6 9.6 0.00 0.00 0.00 59 1009.9
20260505002950 64 345 3.5 6.1 0.00 0.00 0.00 59 1009.9
20260505002452 64 152 2.6 6.1 0.00 0.00 0.00 58 1009.9
20260505001947 64 129 3.5 6.1 0.00 0.00 0.00 58 1009.9
20260505001446 64 56 3.5 6.1 0.00 0.00 0.00 57 1009.9
20260505000948 65 148 3.5 12.2 0.00 0.00 0.00 56 1009.9
20260505000447 65 121 3.5 12.2 0.00 0.00 0.00 56 1009.9
20260504235947 65 125 3.5 7.8 0.00 0.00 0.00 56 1009.9
20260504235441 66 140 4.3 8.7 0.00 0.00 0.00 55 1009.9
20260504234938 66 147 4.3 8.7 0.00 0.00 0.00 54 1009.8
20260504234439 67 129 4.3 7.8 0.00 0.00 0.00 53 1009.8
20260504233937 67 118 4.3 8.7 0.00 0.00 0.00 52 1009.8
20260504233438 68 204 3.5 8.7 0.00 0.00 0.00 51 1009.9
20260504232436 69 128 2.6 7.8 0.00 0.00 0.00 48 1009.7
20260504231936 69 150 2.6 10.4 0.00 0.00 0.00 48 1009.7
20260504231436 69 175 3.5 10.4 0.00 0.00 0.00 48 1009.8
20260504230938 69 145 2.6 7.8 0.00 0.00 0.00 47 1009.7
20260504230436 69 269 1.7 7.8 0.00 0.00 0.00 48 1009.8
20260504225936 70 129 2.6 8.7 0.00 0.00 0.00 47 1009.8
20260504225438 70 131 2.6 8.7 0.00 0.00 0.00 48 1009.8
20260504224437 70 196 2.6 7.0 0.00 0.00 0.00 47 1009.8
20260504223933 70 151 2.6 7.0 0.00 0.00 0.00 48 1009.8
20260504223431 71 129 2.6 7.0 0.00 0.00 0.00 47 1009.9
20260504222930 71 166 2.6 9.6 0.00 0.00 0.00 46 1009.9
20260504221430 71 225 3.5 9.6 0.00 0.00 0.00 46 1009.8
20260504220933 71 345 3.5 10.4 0.00 0.00 0.00 46 1009.8
20260504220434 71 345 2.6 10.4 0.00 0.00 0.00 47 1009.8
20260504215937 71 345 2.6 6.1 0.00 0.00 0.00 46 1009.7
20260504215434 72 345 3.5 8.7 0.00 0.00 0.00 46 1009.8
20260504214430 72 345 3.5 13.0 0.00 0.00 0.00 44 1009.9
20260504213940 72 345 3.5 9.6 0.00 0.00 0.00 46 1009.9
20260504213430 72 345 3.5 11.3 0.00 0.00 0.00 46 1009.9
20260504212931 72 345 3.5 11.3 0.00 0.00 0.00 46 1009.9
20260504212425 72 345 3.5 9.6 0.00 0.00 0.00 46 1009.9
20260504211924 72 345 3.5 9.6 0.00 0.00 0.00 44 1009.9
20260504211422 73 345 2.6 9.6 0.00 0.00 0.00 46 1009.9
20260504210940 73 345 3.5 9.6 0.00 0.00 0.00 46 1009.9
20260504210422 73 345 3.5 9.6 0.00 0.00 0.00 47 1009.8
20260504205922 72 345 3.5 9.6 0.00 0.00 0.00 49 1009.8
20260504205422 72 318 3.5 9.6 0.00 0.00 0.00 46 1009.8
20260504204922 72 345 3.5 9.6 0.00 0.00 0.00 45 1009.9
20260504204422 72 345 4.3 15.6 0.00 0.00 0.00 44 1010.0
20260504203920 72 345 4.3 15.6 0.00 0.00 0.00 45 1010.0
20260504203421 72 345 2.6 11.3 0.00 0.00 0.00 47 1010.0
20260504202921 72 345 2.6 9.6 0.00 0.00 0.00 46 1010.2
20260504202420 72 345 3.5 9.6 0.00 0.00 0.00 46 1010.1
20260504201919 72 345 2.6 8.7 0.00 0.00 0.00 47 1010.3
20260504201419 72 345 2.6 8.7 0.00 0.00 0.00 48 1010.3
20260504200917 72 243 3.5 10.4 0.00 0.00 0.00 47 1010.4
20260504200411 72 345 3.5 10.4 0.00 0.00 0.00 45 1010.4
20260504195905 72 345 2.6 7.0 0.00 0.00 0.00 46 1010.4
20260504195355 71 345 2.6 8.7 0.00 0.00 0.00 49 1010.6
20260504194849 71 183 4.3 11.3 0.00 0.00 0.00 46 1010.6
20260504194349 71 195 4.3 11.3 0.00 0.00 0.00 44 1010.7
20260504193847 71 279 3.5 8.7 0.00 0.00 0.00 46 1010.8
20260504193346 71 238 3.5 8.7 0.00 0.00 0.00 46 1010.8
20260504192844 71 190 3.5 8.7 0.00 0.00 0.00 45 1011.1
20260504192346 71 202 4.3 13.9 0.00 0.00 0.00 48 1011.2
20260504191846 71 163 4.3 13.9 0.00 0.00 0.00 46 1011.1
20260504191344 71 233 3.5 12.2 0.00 0.00 0.00 47 1011.3
20260504190347 71 327 3.5 8.7 0.00 0.00 0.00 47 1011.5
20260504185844 71 259 2.6 7.8 0.00 0.00 0.00 50 1011.5
20260504185347 71 333 2.6 8.7 0.00 0.00 0.00 48 1011.6
20260504184849 70 181 4.3 12.2 0.00 0.00 0.00 45 1011.7
20260504184347 70 175 4.3 12.2 0.00 0.00 0.00 47 1011.7
20260504183848 70 345 5.2 11.3 0.00 0.00 0.00 45 1011.8
20260504183340 70 345 4.3 11.3 0.00 0.00 0.00 46 1011.8
20260504181830 70 222 4.3 12.2 0.00 0.00 0.00 49 1012.0
20260504181331 70 131 5.2 12.2 0.00 0.00 0.00 51 1012.0
20260504180831 70 262 4.3 10.4 0.00 0.00 0.00 47 1012.0
20260504180333 70 345 4.3 10.4 0.00 0.00 0.00 44 1012.0
20260504175839 69 345 4.3 16.5 0.00 0.00 0.00 46 1012.2
20260504175338 70 188 4.3 16.5 0.00 0.00 0.00 46 1012.0
20260504174836 69 345 3.5 12.2 0.00 0.00 0.00 46 1012.0
20260504174338 70 114 3.5 12.2 0.00 0.00 0.00 46 1012.2
20260504173330 70 258 3.5 9.6 0.00 0.00 0.00 45 1012.4
20260504172331 69 181 3.5 8.7 0.00 0.00 0.00 45 1012.4
20260504171329 69 230 3.5 8.7 0.00 0.00 0.00 50 1012.7
20260504170830 69 345 4.3 12.2 0.00 0.00 0.00 49 1012.7
20260504160321 67 301 2.6 9.6 0.00 0.00 0.00 47 1013.5
20260504150819 65 158 2.6 7.8 0.00 0.00 0.00 47 1014.0
20260504150319 65 96 2.6 7.0 0.00 0.00 0.00 49 1014.0
20260504141314 62 262 2.6 7.8 0.00 0.00 0.00 55 1014.4
20260504140813 62 215 2.6 7.8 0.00 0.00 0.00 52 1014.3
20260504140314 62 203 2.6 7.8 0.00 0.00 0.00 53 1014.3
20260504130812 54 345 2.6 7.8 0.00 0.00 0.00 65 1014.6
20260504120314 48 133 1.7 3.5 0.00 0.00 0.00 72 1014.9
20260504100505 46 106 0.0 1.7 0.00 0.00 0.00 66 1015.0
20260504081928 46 252 0.9 5.2 0.00 0.00 0.00 61 1015.3
20260504081428 46 269 1.7 5.2 0.00 0.00 0.00 62 1015.2
20260504080927 46 246 1.7 5.2 0.00 0.00 0.00 62 1015.3
20260504080423 46 264 1.7 6.1 0.00 0.00 0.00 63 1015.2